Temp
-12 -12 -12 -12 -12 -12 -12 -12 -12 -12 -13 -13 -13 -13 -14 -14 -13 -14 -14 -14 -13 -12 -12 -12 -12 -11 -11 -11 -10 -10 -10 -10 -9 -9 -8 -8 -8 -8 -7 -7 -7 -7 -7 -8 -9 -10 -10
-12 -13 -13 -13 -12 -12 -12 -13 -12 -12 -12 -13 -13 -13 -14 -14 -13 -14 -14 -14 -14 -13 -13 -13 -13 -12 -12 -11 -11 -11 -11 -10 -10 -10 -9 -9 -8 -8 -8 -8 -8 -8 -8 -9 -10 -10 -11
-13 -13 -14 -14 -13 -13 -12 -12 -13 -13 -13 -13 -13 -13 -14 -14 -13 -14 -14 -14 -14 -14 -13 -13 -13 -13 -13 -12 -12 -12 -11 -11 -10 -10 -10 -9 -9 -9 -9 -8 -9 -10 -10 -10 -11 -10 -11
-15 -14 -15 -14 -14 -14 -13 -13 -12 -13 -13 -13 -13 -13 -14 -14 -13 -13 -13 -13 -14 -14 -14 -14 -15 -14 -14 -14 -13 -13 -12 -11 -12 -12 -11 -11 -10 -10 -10 -10 -10 -11 -11 -11 -11 -11 -11
-16 -15 -15 -15 -15 -14 -14 -13 -13 -13 -13 -13 -13 -13 -14 -14 -14 -14 -14 -14 -14 -14 -14 -14 -14 -14 -14 -14 -13 -13 -13 -13 -13 -13 -12 -12 -12 -11 -11 -11 -11 -11 -11 -11 -11 -11 -10
-16 -16 -16 -15 -15 -15 -14 -14 -14 -14 -14 -14 -13 -13 -14 -14 -14 -14 -14 -14 -13 -14 -14 -15 -14 -14 -14 -13 -14 -14 -13 -13 -13 -13 -13 -12 -12 -12 -12 -11 -11 -11 -11 -11 -11 -12 -12
-17 -17 -16 -16 -16 -16 -15 -15 -15 -15 -15 -14 -14 -14 -14 -14 -14 -14 -14 -14 -14 -14 -14 -14 -15 -14 -13 -13 -14 -14 -14 -13 -13 -14 -13 -13 -12 -12 -12 -12 -11 -11 -11 -11 -11 -12 -13
-18 -18 -17 -17 -18 -17 -16 -16 -16 -16 -16 -15 -15 -14 -14 -14 -14 -14 -14 -14 -14 -14 -14 -14 -14 -14 -14 -14 -14 -14 -14 -13 -14 -14 -13 -13 -12 -12 -12 -11 -11 -11 -11 -12 -12 -13 -14
-19 -19 -19 -18 -18 -18 -17 -17 -17 -17 -16 -15 -15 -15 -14 -15 -14 -14 -14 -14 -14 -14 -14 -14 -14 -15 -15 -14 -15 -15 -14 -14 -14 -13 -13 -13 -12 -12 -12 -12 -12 -12 -13 -13 -13 -13 -14
-19 -20 -19 -19 -18 -18 -17 -17 -17 -17 -17 -16 -16 -14 -15 -15 -14 -14 -14 -14 -14 -14 -14 -14 -15 -15 -14 -15 -15 -15 -14 -14 -13 -13 -13 -13 -13 -12 -13 -12 -12 -13 -13 -14 -14 -14 -14
-20 -20 -20 -20 -20 -20 -19 -18 -17 -17 -17 -17 -15 -16 -15 -14 -15 -15 -15 -14 -14 -14 -15 -14 -14 -14 -14 -15 -15 -15 -14 -14 -13 -13 -13 -12 -13 -12 -13 -13 -13 -13 -14 -14 -14 -15 -15
-22 -21 -21 -20 -20 -20 -20 -20 -18 -18 -17 -17 -16 -16 -15 -17 -15 -16 -16 -15 -15 -14 -14 -13 -14 -14 -14 -15 -14 -14 -14 -13 -13 -13 -13 -13 -13 -13 -13 -13 -14 -14 -14 -15 -15 -15 -15
-24 -22 -21 -20 -21 -20 -20 -20 -20 -18 -17 -17 -16 -17 -16 -15 -16 -16 -15 -15 -15 -14 -14 -13 -13 -15 -15 -15 -15 -14 -14 -13 -13 -13 -13 -13 -13 -13 -13 -14 -14 -14 -15 -15 -16 -16 -15
-24 -22 -21 -21 -21 -21 -20 -20 -20 -19 -18 -17 -17 -16 -17 -16 -16 -17 -16 -16 -14 -13 -13 -13 -13 -14 -14 -14 -14 -14 -14 -13 -13 -13 -13 -13 -13 -14 -14 -14 -15 -15 -15 -15 -15 -15 -16
-23 -22 -22 -21 -21 -21 -21 -20 -20 -19 -18 -18 -17 -17 -17 -17 -17 -16 -15 -14 -13 -12 -13 -13 -13 -13 -13 -13 -14 -14 -14 -13 -13 -13 -13 -14 -14 -14 -14 -15 -15 -15 -15 -15 -15 -16 -16
-23 -22 -22 -21 -21 -21 -21 -20 -19 -19 -18 -18 -18 -18 -16 -16 -17 -17 -15 -14 -14 -14 -13 -13 -13 -14 -14 -14 -14 -14 -14 -14 -13 -14 -14 -14 -14 -14 -15 -15 -15 -15 -15 -16 -16 -16 -16
-23 -22 -22 -22 -22 -21 -21 -20 -19 -19 -18 -18 -18 -17 -17 -16 -16 -16 -14 -14 -14 -14 -13 -14 -13 -14 -14 -14 -14 -14 -14 -14 -14 -14 -14 -14 -14 -15 -15 -15 -15 -15 -16 -16 -16 -16 -16
-22 -22 -22 -22 -22 -21 -21 -21 -20 -19 -18 -19 -18 -17 -17 -17 -17 -16 -15 -14 -14 -14 -13 -14 -14 -14 -14 -14 -14 -14 -14 -14 -14 -14 -14 -14 -14 -14 -15 -15 -15 -15 -16 -16 -16 -16 -16
-22 -22 -22 -22 -22 -22 -21 -21 -20 -19 -19 -19 -18 -17 -19 -18 -17 -16 -15 -15 -15 -15 -13 -14 -14 -14 -14 -14 -14 -14 -14 -14 -14 -14 -14 -14 -14 -15 -15 -15 -15 -15 -16 -16 -16 -16 -16
-22 -21 -22 -21 -21 -21 -22 -21 -21 -20 -19 -19 -18 -19 -18 -18 -18 -17 -16 -16 -15 -15 -14 -14 -14 -14 -14 -14 -14 -14 -14 -13 -14 -14 -14 -14 -15 -14 -15 -15 -15 -16 -16 -16 -16 -16 -17
-22 -22 -22 -21 -21 -21 -22 -22 -21 -21 -21 -20 -19 -18 -18 -18 -18 -18 -16 -15 -16 -15 -14 -14 -14 -14 -14 -14 -14 -14 -14 -14 -14 -14 -13 -14 -14 -14 -15 -15 -16 -16 -16 -16 -16 -16 -17
-22 -22 -21 -21 -21 -21 -22 -22 -22 -21 -21 -20 -19 -18 -18 -18 -19 -18 -17 -15 -16 -15 -14 -14 -14 -14 -14 -14 -15 -15 -14 -14 -13 -14 -14 -14 -14 -15 -15 -16 -16 -16 -16 -16 -16 -17 -17
-22 -21 -21 -21 -21 -21 -22 -22 -22 -21 -21 -21 -19 -18 -18 -18 -19 -18 -16 -16 -16 -16 -14 -14 -14 -15 -15 -15 -14 -14 -14 -13 -14 -14 -14 -14 -15 -15 -15 -16 -16 -16 -16 -16 -17 -17 -17
-21 -21 -22 -21 -21 -22 -21 -21 -21 -21 -21 -21 -20 -21 -19 -18 -19 -17 -17 -17 -17 -15 -15 -15 -15 -15 -15 -15 -14 -14 -14 -14 -14 -14 -14 -14 -15 -15 -15 -16 -16 -16 -16 -16 -16 -16 -17
-22 -22 -22 -22 -21 -21 -21 -21 -21 -21 -21 -21 -21 -21 -21 -19 -18 -17 -18 -17 -17 -16 -15 -15 -15 -15 -15 -15 -14 -14 -14 -13 -13 -14 -14 -14 -15 -15 -15 -16 -16 -16 -16 -16 -16 -16 -17
-22 -22 -22 -22 -21 -21 -21 -21 -21 -21 -21 -21 -21 -21 -21 -19 -18 -17 -17 -17 -17 -16 -16 -16 -15 -16 -16 -15 -15 -14 -14 -14 -14 -14 -14 -15 -15 -15 -15 -16 -16 -16 -16 -16 -17 -16 -17
-22 -22 -22 -22 -21 -22 -21 -21 -21 -22 -22 -22 -22 -20 -20 -18 -17 -18 -17 -17 -17 -16 -16 -15 -15 -15 -15 -15 -14 -14 -14 -14 -14 -14 -15 -15 -15 -15 -16 -16 -16 -17 -17 -16 -16 -17 -17
-22 -22 -22 -22 -22 -21 -21 -21 -22 -23 -24 -23 -22 -20 -18 -18 -18 -18 -17 -17 -17 -16 -15 -15 -15 -15 -15 -15 -14 -14 -14 -14 -14 -15 -14 -15 -15 -15 -15 -16 -16 -17 -16 -16 -16 -17 -17
-24 -23 -22 -22 -22 -21 -22 -21 -23 -25 -23 -22 -21 -21 -20 -18 -18 -18 -17 -17 -17 -17 -15 -15 -15 -15 -15 -14 -14 -14 -14 -14 -15 -14 -14 -15 -15 -15 -15 -16 -16 -16 -16 -16 -16 -17 -17
Height
5748 5753 5756 5761 5765 5771 5776 5782 5787 5792 5796 5803 5808 5814 5818 5823 5827 5830 5833 5837 5840 5840 5843 5847 5850 5853 5856 5858 5859 5862 5862 5864 5865 5866 5864 5866 5867 5867 5866 5863 5862 5862 5862 5859 5857 5854 5850
5730 5734 5739 5744 5750 5756 5762 5769 5775 5781 5786 5792 5798 5804 5810 5815 5820 5824 5828 5831 5833 5836 5839 5840 5843 5846 5849 5852 5853 5854 5855 5856 5857 5858 5858 5859 5860 5859 5858 5856 5855 5854 5853 5851 5849 5845 5844
5710 5715 5720 5727 5733 5739 5746 5753 5761 5768 5774 5781 5788 5795 5802 5806 5812 5817 5821 5825 5827 5830 5832 5833 5836 5840 5842 5844 5845 5847 5849 5849 5850 5850 5850 5851 5853 5853 5852 5851 5849 5848 5849 5847 5844 5843 5839
5690 5694 5700 5707 5715 5722 5730 5738 5746 5755 5763 5769 5777 5784 5791 5798 5804 5809 5815 5819 5822 5825 5828 5829 5831 5833 5835 5836 5837 5840 5841 5844 5844 5844 5845 5845 5845 5845 5846 5845 5844 5845 5845 5843 5841 5839 5837
5669 5674 5680 5687 5695 5704 5712 5722 5730 5740 5749 5758 5765 5774 5781 5788 5796 5802 5807 5812 5817 5820 5823 5824 5826 5827 5830 5830 5831 5833 5836 5838 5839 5840 5841 5841 5841 5839 5839 5840 5840 5841 5839 5837 5838 5833 5829
5647 5653 5659 5666 5675 5684 5694 5703 5714 5724 5733 5745 5753 5761 5770 5778 5786 5793 5799 5806 5810 5815 5819 5819 5821 5825 5825 5823 5825 5827 5831 5833 5835 5836 5837 5838 5838 5837 5836 5836 5837 5838 5835 5835 5832 5828 5824
5626 5632 5639 5647 5656 5665 5676 5686 5697 5709 5720 5730 5740 5749 5760 5768 5775 5783 5792 5798 5804 5810 5814 5815 5816 5817 5816 5815 5818 5822 5826 5828 5830 5832 5833 5833 5834 5832 5833 5833 5833 5830 5828 5827 5826 5824 5821
5607 5613 5620 5629 5639 5649 5658 5670 5681 5695 5709 5716 5729 5738 5749 5757 5765 5774 5783 5789 5796 5804 5807 5810 5811 5813 5813 5813 5815 5818 5821 5824 5827 5829 5828 5831 5830 5830 5830 5829 5828 5826 5825 5823 5821 5819 5816
5591 5597 5604 5612 5623 5633 5642 5654 5667 5681 5695 5713 5714 5729 5736 5746 5755 5766 5774 5782 5788 5796 5800 5804 5807 5810 5810 5811 5813 5816 5818 5821 5824 5826 5825 5826 5826 5827 5826 5824 5824 5822 5820 5819 5818 5815 5813
5576 5582 5589 5597 5605 5614 5626 5638 5652 5667 5682 5698 5705 5718 5717 5734 5748 5757 5766 5773 5780 5788 5793 5799 5804 5805 5807 5810 5812 5815 5816 5820 5821 5822 5822 5823 5823 5823 5823 5822 5821 5820 5819 5817 5815 5812 5810
5560 5569 5577 5584 5592 5600 5609 5622 5637 5653 5669 5685 5695 5707 5715 5730 5741 5750 5756 5764 5772 5780 5786 5794 5796 5800 5802 5806 5809 5811 5812 5815 5817 5818 5819 5820 5820 5820 5821 5820 5818 5818 5815 5814 5811 5809 5807
5545 5557 5566 5573 5581 5589 5599 5608 5622 5638 5655 5672 5684 5693 5706 5712 5727 5734 5744 5755 5765 5773 5776 5784 5789 5794 5796 5800 5805 5806 5809 5811 5813 5814 5815 5816 5816 5817 5816 5816 5814 5813 5812 5810 5808 5805 5804
5534 5546 5556 5565 5572 5579 5588 5597 5608 5624 5640 5658 5671 5682 5691 5706 5720 5724 5732 5743 5753 5758 5770 5777 5783 5788 5792 5796 5798 5802 5805 5807 5809 5811 5811 5812 5812 5813 5812 5811 5810 5809 5808 5807 5805 5804 5801
5527 5537 5547 5557 5564 5571 5580 5587 5597 5610 5626 5642 5657 5677 5677 5695 5702 5713 5722 5734 5744 5752 5765 5771 5778 5783 5789 5794 5795 5798 5800 5802 5804 5806 5806 5808 5809 5808 5808 5807 5806 5805 5805 5803 5802 5802 5799
5523 5531 5540 5549 5557 5564 5572 5580 5588 5599 5614 5631 5649 5665 5675 5686 5694 5704 5715 5725 5737 5745 5758 5766 5772 5778 5785 5789 5791 5793 5795 5798 5801 5802 5804 5804 5804 5804 5803 5803 5803 5802 5802 5802 5800 5798 5795
5518 5525 5534 5542 5550 5557 5565 5573 5582 5591 5604 5621 5638 5653 5668 5680 5687 5694 5706 5720 5730 5740 5751 5759 5766 5774 5780 5783 5786 5788 5791 5795 5797 5799 5799 5800 5800 5800 5800 5800 5800 5800 5800 5799 5797 5795 5792
5510 5518 5526 5534 5542 5550 5558 5567 5576 5586 5596 5612 5630 5645 5662 5670 5675 5684 5703 5715 5724 5733 5744 5753 5761 5768 5774 5778 5781 5785 5788 5791 5793 5794 5795 5795 5796 5797 5796 5797 5797 5797 5795 5795 5795 5793 5790
5501 5509 5517 5526 5534 5541 5550 5559 5570 5581 5592 5606 5621 5635 5649 5660 5667 5678 5691 5707 5719 5727 5737 5747 5754 5761 5768 5772 5776 5781 5783 5785 5788 5791 5791 5791 5792 5792 5794 5793 5794 5793 5793 5793 5792 5791 5788
5491 5500 5508 5516 5525 5533 5541 5551 5563 5575 5586 5597 5611 5626 5635 5645 5656 5671 5683 5694 5710 5721 5732 5742 5748 5756 5763 5767 5772 5776 5779 5782 5784 5785 5787 5788 5788 5789 5789 5791 5790 5790 5791 5789 5789 5787 5786
5478 5487 5496 5505 5514 5523 5533 5544 5555 5566 5577 5588 5601 5615 5627 5641 5656 5666 5676 5687 5705 5713 5724 5735 5743 5752 5756 5761 5767 5772 5774 5777 5780 5781 5783 5783 5783 5786 5788 5788 5788 5788 5787 5787 5786 5784 5783
5467 5475 5484 5493 5503 5514 5525 5536 5547 5558 5568 5580 5591 5605 5617 5629 5645 5660 5671 5684 5697 5706 5719 5728 5738 5745 5753 5758 5764 5768 5771 5775 5776 5777 5779 5780 5781 5783 5784 5784 5785 5785 5784 5783 5782 5781 5779
5456 5464 5472 5482 5493 5504 5515 5526 5538 5550 5560 5573 5586 5600 5614 5630 5642 5652 5661 5674 5695 5702 5715 5725 5732 5741 5748 5756 5761 5763 5766 5770 5773 5775 5775 5777 5779 5780 5781 5781 5780 5781 5781 5780 5778 5776 5775
5448 5455 5463 5472 5483 5495 5506 5518 5530 5543 5557 5569 5582 5597 5608 5619 5636 5644 5657 5677 5689 5694 5707 5720 5730 5740 5745 5751 5755 5758 5763 5767 5770 5771 5772 5774 5776 5777 5776 5776 5776 5778 5777 5776 5775 5773 5772
5439 5446 5454 5463 5474 5485 5497 5510 5524 5539 5554 5567 5580 5589 5599 5615 5628 5644 5655 5674 5682 5688 5702 5716 5726 5733 5739 5745 5750 5755 5760 5762 5765 5768 5769 5771 5771 5771 5771 5772 5773 5773 5773 5772 5772 5771 5768
5429 5437 5444 5454 5464 5475 5488 5502 5517 5533 5546 5558 5570 5580 5592 5608 5629 5631 5647 5665 5676 5685 5698 5712 5721 5729 5734 5742 5745 5751 5755 5759 5762 5765 5765 5766 5767 5766 5766 5768 5770 5769 5768 5768 5767 5768 5766
5417 5425 5434 5444 5454 5465 5478 5493 5508 5520 5532 5546 5559 5570 5583 5600 5614 5630 5645 5659 5670 5682 5695 5705 5714 5721 5731 5736 5739 5745 5752 5756 5758 5760 5761 5762 5762 5762 5763 5763 5765 5765 5764 5764 5763 5763 5762
5401 5411 5421 5432 5443 5455 5468 5482 5495 5506 5516 5527 5542 5559 5577 5599 5610 5623 5636 5652 5666 5680 5693 5701 5707 5713 5722 5728 5736 5741 5747 5751 5754 5756 5756 5756 5757 5758 5757 5757 5760 5761 5759 5760 5761 5763 5758
5379 5392 5406 5419 5432 5444 5456 5469 5481 5491 5497 5510 5536 5555 5576 5592 5607 5623 5636 5646 5663 5679 5691 5696 5703 5710 5719 5726 5730 5737 5743 5747 5749 5751 5751 5752 5753 5753 5753 5754 5756 5755 5756 5757 5757 5755 5754
5350 5369 5388 5405 5420 5434 5446 5458 5469 5475 5490 5508 5534 5553 5573 5592 5609 5624 5637 5648 5666 5678 5686 5693 5707 5717 5725 5728 5732 5735 5740 5743 5746 5746 5747 5748 5750 5750 5750 5749 5749 5750 5752 5753 5752 5751 5750
Wind_Speed
62 56 55 58 58 56 55 54 52 54 53 51 50 47 44 39 36 29 28 43 39 42 42 43 42 40 38 36 36 35 33 31 31 31 33 33 31 30 30 31 32 31 31 29 25 24 25
68 63 58 58 60 61 61 58 57 55 56 54 52 50 48 45 41 33 32 37 39 41 43 41 41 41 40 38 36 35 33 32 30 30 31 31 29 28 27 29 29 29 27 25 22 23 23
71 67 62 59 59 62 64 64 60 59 57 57 55 53 52 50 43 39 37 33 21 24 30 39 43 39 33 36 37 34 31 29 29 27 28 28 26 23 24 25 24 21 17 17 18 19 20
68 69 66 65 62 60 63 63 64 63 60 60 58 55 54 55 48 45 43 40 29 24 26 27 27 29 28 27 31 28 26 24 23 22 22 20 20 22 19 19 18 15 13 14 15 17 19
70 70 69 65 64 61 65 69 66 67 64 62 61 58 57 58 55 47 47 41 33 32 31 28 23 22 27 25 26 25 23 21 19 18 16 14 15 16 17 15 15 11 10 14 16 18 20
71 67 65 64 66 63 66 70 72 70 67 64 62 60 57 57 57 54 50 46 36 32 27 24 14 14 21 30 27 28 23 20 20 19 17 14 13 14 14 14 13 9 13 15 15 16 19
64 65 64 65 65 63 65 70 72 69 64 67 63 61 60 57 55 54 51 49 44 33 30 28 22 23 20 22 25 26 25 23 22 18 16 14 13 13 11 11 11 13 16 17 17 14 16
59 60 60 60 58 61 62 65 70 67 64 68 62 62 61 58 56 55 54 52 45 37 32 32 24 31 15 15 16 22 24 22 17 13 15 13 12 12 11 11 11 14 16 17 17 16 15
54 53 53 53 57 59 61 65 67 64 64 56 53 56 64 60 57 55 52 51 49 41 34 33 28 28 8 16 13 15 15 12 11 11 11 10 10 8 9 11 12 13 15 16 15 14 13
51 52 49 48 50 53 61 65 69 64 65 73 54 47 46 60 57 54 52 52 52 49 43 34 31 29 15 17 14 16 16 15 13 10 10 9 8 9 9 11 12 12 12 13 13 13 14
54 50 46 44 46 45 57 71 71 67 67 72 63 70 62 63 55 54 52 52 50 47 44 37 33 29 26 22 19 19 18 15 13 12 12 11 9 10 8 11 11 11 12 11 11 11 13
51 47 45 41 42 44 48 58 72 70 70 71 60 64 58 48 55 55 52 51 49 46 47 37 31 31 21 21 19 20 20 18 15 13 12 10 9 9 9 9 10 10 10 10 9 12 14
47 49 45 40 40 41 46 50 56 70 72 77 75 45 55 57 54 50 52 53 53 51 45 38 31 24 15 16 24 19 16 15 15 14 12 10 10 9 10 9 8 8 8 8 9 12 15
45 44 44 40 39 41 43 48 54 65 76 80 70 63 45 53 53 58 50 56 53 49 44 39 32 23 19 18 16 17 13 12 13 13 11 10 9 9 9 9 8 8 7 8 11 13 14
40 41 42 41 40 41 42 46 53 59 75 77 78 79 55 57 57 57 53 50 54 55 44 40 34 27 23 21 20 18 13 13 15 13 12 11 10 10 10 9 8 9 8 10 11 13 15
38 39 41 41 42 44 44 47 50 54 70 78 78 82 49 56 62 61 59 43 46 48 44 39 34 30 23 21 21 17 16 16 15 14 12 11 12 10 10 9 9 10 10 9 11 14 16
45 43 43 43 44 47 48 48 50 51 60 78 80 78 53 52 55 63 61 60 42 44 43 38 34 28 26 27 24 21 17 17 15 14 14 13 12 10 10 10 11 10 8 9 11 14 15
45 42 41 42 46 50 52 51 52 52 56 68 79 82 66 65 54 54 55 57 58 51 41 39 36 33 28 26 22 18 17 18 16 16 13 12 13 11 11 11 9 9 9 9 11 12 14
45 44 43 44 48 53 56 54 52 54 56 64 79 83 86 54 59 63 55 63 57 56 48 42 38 33 28 27 22 21 20 19 17 13 13 14 9 10 10 9 10 11 11 10 11 12 15
46 45 45 47 51 55 58 58 55 55 59 60 70 81 80 79 60 54 58 56 54 54 47 43 38 34 32 28 24 21 22 20 15 14 14 10 9 11 12 12 12 11 12 11 12 13 14
40 45 46 50 54 57 61 60 58 59 59 62 66 80 87 86 65 60 62 50 55 54 51 43 40 38 30 26 23 22 22 17 14 15 12 9 11 13 14 15 14 12 13 13 12 12 14
36 40 45 51 55 59 62 63 57 62 58 65 71 70 84 92 63 62 61 57 53 53 52 46 44 38 32 26 23 25 25 20 17 16 11 13 14 14 15 16 14 13 12 12 13 14 13
36 40 43 51 56 60 63 64 60 62 57 61 69 70 82 84 77 60 63 54 49 56 55 51 42 34 31 29 28 27 23 19 16 16 14 14 14 14 16 15 14 12 14 11 10 13 13
39 41 46 52 56 62 64 62 62 61 56 56 64 70 75 87 83 62 68 53 50 56 56 48 40 38 36 33 29 27 23 21 18 15 12 12 14 14 14 16 14 13 14 10 10 10 12
42 44 47 54 59 63 65 63 62 62 56 63 61 65 73 73 86 74 61 64 54 59 52 43 39 38 37 33 33 28 24 20 18 15 14 13 14 14 14 15 14 14 15 12 11 11 11
48 48 49 54 60 63 65 64 59 58 60 62 69 77 84 81 95 70 60 62 60 55 49 44 43 41 39 37 33 29 25 20 19 16 16 14 12 13 12 14 15 14 15 12 11 12 13
59 56 53 55 60 62 62 63 58 61 60 63 74 90 90 87 89 78 68 67 60 48 39 47 49 47 44 40 33 30 26 23 16 12 14 13 12 13 14 16 15 15 16 13 12 12 13
69 65 63 59 60 60 60 58 54 58 57 68 80 90 90 88 84 69 66 63 57 47 39 49 48 46 42 39 36 30 27 22 17 16 13 14 15 14 15 15 16 17 16 14 13 13 13
76 79 72 66 61 61 58 50 52 52 78 83 73 86 85 84 75 59 56 60 53 41 45 45 41 31 32 31 28 27 23 20 17 14 13 13 14 15 14 15 17 17 16 13 13 14 12
Wind_Direction
266 261 251 245 244 245 246 245 243 242 241 240 240 238 243 241 249 249 258 246 251 245 247 252 256 260 265 268 271 276 278 281 281 283 282 284 286 288 290 291 292 291 289 284 286 288 285
264 261 255 249 244 242 244 243 242 241 240 239 240 239 239 239 241 244 258 255 241 254 258 257 257 260 264 268 272 274 277 279 283 282 281 283 285 289 289 290 288 287 287 292 296 294 300
261 259 255 249 244 240 240 241 242 239 240 238 237 237 234 237 234 241 248 257 268 258 260 258 256 262 264 269 269 272 278 277 277 278 281 287 288 285 287 284 282 287 294 299 290 296 297
259 258 256 253 249 242 238 237 240 239 236 237 235 234 233 236 233 238 245 251 261 273 283 260 255 264 263 266 266 265 269 265 266 270 277 279 279 279 276 276 284 297 303 291 292 294 294
260 259 256 253 248 241 238 235 234 238 234 233 234 232 231 233 235 236 242 247 256 265 269 258 251 257 251 268 260 256 259 263 266 276 275 275 280 283 286 285 289 308 303 289 296 304 311
261 256 249 246 243 237 236 232 233 232 230 229 231 231 229 230 234 237 240 242 246 254 263 277 261 258 271 261 255 247 252 255 264 267 263 271 272 273 276 287 302 307 291 303 318 322 320
259 251 246 243 241 237 232 230 230 230 227 225 225 228 228 227 229 233 233 241 242 243 260 268 266 275 284 246 238 239 244 254 256 255 262 261 260 271 282 285 297 306 309 321 326 323 317
255 251 247 242 235 231 227 226 227 226 214 227 221 226 226 226 226 229 232 238 239 236 252 261 260 281 271 227 218 236 245 243 231 243 247 240 248 260 277 297 309 313 320 320 325 326 324
254 249 245 240 234 233 230 226 223 221 218 214 196 226 228 223 224 227 231 234 235 234 239 255 251 272 208 189 188 207 214 197 207 217 230 237 249 268 288 302 310 316 317 319 320 321 316
250 246 242 237 239 235 226 221 219 217 213 207 214 209 204 221 222 224 227 231 232 234 237 248 251 256 200 201 195 208 206 209 222 226 236 236 254 270 281 293 303 303 304 310 310 316 320
243 241 234 227 227 224 220 217 216 213 210 205 204 211 222 228 220 222 223 228 233 233 236 239 237 253 224 206 210 209 213 218 232 246 236 233 247 268 279 287 297 302 305 305 311 318 319
232 223 218 219 223 222 221 221 214 208 205 204 194 203 209 208 213 215 218 224 229 231 229 232 236 240 217 198 219 215 215 223 237 242 228 234 246 267 279 284 290 295 299 309 314 325 319
215 209 211 216 219 221 219 215 213 206 202 200 199 201 207 211 212 211 215 217 223 224 220 224 230 231 231 240 225 216 213 220 226 223 225 236 254 267 276 280 285 293 302 313 321 316 319
211 207 210 216 215 217 216 210 206 206 201 199 199 193 197 192 202 209 218 209 216 221 221 220 224 221 227 230 220 225 231 224 225 223 228 245 256 270 277 280 285 290 308 317 306 312 318
210 208 209 213 212 212 212 209 204 202 202 201 198 196 198 206 203 203 210 220 224 222 213 216 221 222 221 223 233 237 236 232 227 224 235 247 258 266 270 273 280 294 298 293 297 314 324
210 210 210 210 209 209 208 205 200 200 200 200 198 201 187 195 205 209 205 207 211 212 209 212 217 221 222 219 230 231 231 227 219 223 238 252 261 263 264 270 276 277 275 287 308 321 328
212 214 212 212 208 205 205 203 201 198 198 197 197 195 188 186 199 215 207 210 207 207 205 209 214 217 221 228 232 233 229 216 216 230 238 251 259 262 264 257 256 267 284 300 310 321 327
219 218 218 213 207 206 202 202 202 197 195 198 197 193 185 188 205 218 212 215 214 215 215 214 210 213 214 223 227 228 216 214 219 229 243 253 259 259 253 248 259 278 287 288 302 312 325
225 225 223 215 208 205 201 202 202 199 196 198 200 197 203 193 209 211 207 210 209 215 216 210 209 210 213 220 224 216 212 216 226 237 246 253 260 255 249 257 264 275 277 280 295 311 321
226 225 220 215 207 204 201 202 204 202 198 198 198 198 199 201 203 209 206 204 201 209 209 207 206 209 212 214 214 206 211 219 225 236 249 258 249 260 255 247 261 267 273 277 290 312 321
223 222 219 214 208 203 199 200 203 203 202 197 200 200 194 198 194 201 204 201 201 211 207 206 207 205 212 212 207 206 214 220 225 237 246 240 249 253 245 247 255 260 271 278 292 313 320
221 219 215 211 208 204 202 198 200 201 205 202 201 202 201 201 193 199 207 207 206 215 215 210 206 205 203 201 202 208 209 215 219 231 232 237 246 245 239 241 256 261 269 279 295 311 318
221 218 216 210 207 204 202 201 200 200 206 205 200 201 202 204 201 204 208 205 209 215 208 206 209 205 200 201 205 208 211 214 223 227 231 246 250 243 241 246 252 262 271 277 294 305 312
223 218 217 211 208 204 203 204 205 204 206 205 203 202 203 201 199 199 205 200 199 206 204 205 200 200 202 200 205 209 211 213 220 225 229 243 247 247 251 248 256 258 270 277 287 302 309
219 220 216 214 209 205 205 207 207 206 211 204 208 214 205 205 197 199 200 200 202 209 202 194 200 199 202 202 209 205 208 211 221 221 227 246 249 247 253 253 254 264 268 282 297 308 306
220 218 218 213 211 208 207 208 209 213 209 218 219 213 211 204 204 198 200 195 198 198 198 199 197 200 204 206 206 204 205 215 220 219 233 249 250 255 263 255 252 253 264 279 296 304 309
226 220 217 215 211 210 210 211 212 217 220 221 205 202 205 199 201 201 196 191 199 200 195 196 198 199 200 207 204 202 204 212 215 217 232 248 252 254 261 258 247 246 260 278 293 301 306
228 223 217 215 214 210 211 210 217 219 217 198 187 195 197 199 199 203 198 197 197 193 198 199 200 202 206 203 199 199 204 210 208 221 240 253 265 262 263 260 248 245 256 276 292 299 301
226 222 218 213 210 208 210 211 217 217 177 169 171 192 193 194 196 192 199 207 207 214 207 202 209 212 215 206 204 208 207 211 213 226 245 252 264 266 273 261 251 249 253 272 287 293 304